Flag for U.S.A. Weather past 2 weeks in Annapolis, Maryland, U.S.A.

Now
87 °F

Sunny.


Feels Like: 88 °F
Forecast: 70 / 89 °F
Wind: 10 mph from South

Location: Annapolis - United States Naval Academy

Current Time: Aug 3, 2015 at 4:12:16 PM

Latest Report: Aug 3, 2015 at 2:54 PM


Visibility: 10 mi

Pressure: 29.82 "Hg

Humidity: 43%

Dew point: 62 °F

Location of AnnapolisLocation

Historic Weather in Annapolis — Graph

°F

Annapolis temperature yesterday

Maximum temperature yesterday: 84 °F (at 11:54 AM)
Minimum temperature yesterday: 70 °F (at 5:54 AM)
Average temperature yesterday: 78 °F

Past Weeks' High & Low Weather Summary

 TemperatureHumidityPressure
High92 °F (Jul 20, 4:54 PM)91% (Jul 28, 5:54 AM)30.02 "Hg (Jul 28, 5:54 AM)
Low67 °F (Jul 24, 3:54 AM)32% (Jul 31, 2:54 PM)29.62 "Hg (Jul 21, 5:54 PM)
Average79 °F65%29.90 "Hg
* Reported Jul 19 2:54 PM — Aug 3 2:54 PM, Annapolis, Weather by CustomWeather, © 2015

Note: Actual official high and low records may vary slightly from our data, if they occured in-between our weather recording intervals... More about our weather records

Advertising

Annapolis weather history for previous 24 hours

 ConditionsComfort  
Time TempWeatherWind HumidityBarometerVisibility
2:54 PM
Mon, Aug 3
87 °FSunny.10 mph43%29.82 "Hg10 mi
1:54 PM88 °FSunny.3 mph36%29.84 "Hg10 mi
12:54 PM86 °FSunny.8 mph42%29.85 "Hg10 mi
11:54 AM85 °FSunny.7 mph45%29.86 "Hg10 mi
10:54 AM83 °FSunny.5 mph50%29.88 "Hg10 mi
9:54 AM80 °FSunny.9 mph52%29.88 "Hg10 mi
8:54 AM78 °FSunny.9 mph58%29.88 "Hg10 mi
7:54 AM74 °FSunny.3 mph67%29.87 "Hg10 mi
6:54 AM71 °FClear.No wind73%29.88 "Hg10 mi
5:54 AM70 °FClear.No wind76%29.86 "Hg10 mi
4:54 AM70 °FClear.7 mph79%29.87 "Hg10 mi
3:54 AM71 °FClear.No wind76%29.87 "Hg10 mi
2:54 AM72 °FClear.No wind68%29.87 "Hg10 mi
1:54 AM73 °FClear.No wind66%29.88 "Hg10 mi
12:54 AM73 °FClear.No wind66%29.89 "Hg10 mi
11:54 PM
Sun, Aug 2
75 °FClear.No wind62%29.89 "Hg10 mi
10:54 PM75 °FClear.No wind62%29.90 "Hg10 mi
9:54 PM78 °FClear.3 mph62%29.91 "Hg10 mi
8:54 PM79 °FSunny.3 mph50%29.90 "Hg10 mi
7:54 PM82 °FSunny.6 mph43%29.90 "Hg10 mi
6:54 PM83 °FSunny.8 mph44%29.90 "Hg10 mi
5:54 PM83 °FSunny.8 mph44%29.90 "Hg10 mi
4:54 PM83 °FSunny.13 mph46%29.92 "Hg10 mi
Weather by CustomWeather, © 2015

See weather overviewHow to use our weather pages